Maplewood, Minnesota, United States
Lat: 44.95N, Lon: 93W
Wx Zone: MNZ062
Local Info
Past Weather Observations for Monday, August 24, 2015

NOTE: This archive is for the closest National Weather Service station to Maplewood. Information may differ from the station used for current weather conditions.

Click here for Long-term Archive

Time Weather Temperature Dewpoint Humidity Pressure Winds Precip Visibility
23:53
Overcast
61°F / 16°C 48°F / 9°C 63% 30.06 in
(1018 mb)
NNW 11.5 mph
(NNW 19 kph)
- 10SM
22:53
Overcast
63°F / 17°C 48°F / 9°C 59% 30.04 in
(1017 mb)
NNW 11.5 mph
(NNW 19 kph)
- 10SM
21:53
Overcast
63°F / 17°C 46°F / 8°C 56% 30.04 in
(1017 mb)
NW 10.4 mph
(NW 17 kph)
- 10SM
20:53
Overcast
63°F / 17°C 46°F / 8°C 56% 30.04 in
(1017 mb)
NW 9.2 mph
(NW 15 kph)
- 10SM
19:53
Overcast
63°F / 17°C 46°F / 8°C 56% 30.04 in
(1017 mb)
NW 10.4 mph
(NW 17 kph)
- 10SM
18:53
Overcast
64°F / 18°C 46°F / 8°C 52% 30.01 in
(1016 mb)
NNW 11.5 mph
(NNW 19 kph)
- 10SM
17:53
Overcast
64°F / 18°C 46°F / 8°C 52% 30.01 in
(1016 mb)
NNW 13.8 mph
(NNW 22 kph)
- 10SM
16:53
Overcast
64°F / 18°C 45°F / 7°C 49% 30.01 in
(1016 mb)
NW 19.6 mph
(NW 32 kph)
- 10SM
15:53
Overcast
64°F / 18°C 46°F / 8°C 52% 30.01 in
(1016 mb)
NNW 17.3 mph
(NNW 28 kph)
- 10SM
14:53
Overcast
64°F / 18°C 43°F / 6°C 46% 30.01 in
(1016 mb)
NW 25.3 mph
(NW 41 kph)
- 10SM
13:53
Overcast
66°F / 19°C 45°F / 7°C 46% 29.98 in
(1015 mb)
NW 24.2 mph
(NW 39 kph)
- 10SM
12:53
Overcast
64°F / 18°C 43°F / 6°C 46% 29.98 in
(1015 mb)
NW 20.7 mph
(NW 33 kph)
- 10SM
11:53
Overcast
64°F / 18°C 43°F / 6°C 46% 29.98 in
(1015 mb)
WNW 23 mph
(WNW 37 kph)
- 10SM
10:53
Overcast
61°F / 16°C 45°F / 7°C 55% 30.01 in
(1016 mb)
NW 23 mph
(NW 37 kph)
- 10SM
09:53
Overcast
57°F / 14°C 43°F / 6°C 59% 30.01 in
(1016 mb)
NW 26.5 mph
(NW 43 kph)
- 10SM
08:53
Overcast
55°F / 13°C 45°F / 7°C 67% 30.01 in
(1016 mb)
NW 23 mph
(NW 37 kph)
- 10SM
07:53
Overcast
55°F / 13°C 43°F / 6°C 63% 30.01 in
(1016 mb)
NW 21.9 mph
(NW 35 kph)
- 10SM
06:53
Overcast
55°F / 13°C 43°F / 6°C 63% 29.98 in
(1015 mb)
WNW 19.6 mph
(WNW 32 kph)
- 10SM
05:53
Clear
55°F / 13°C 43°F / 6°C 63% 29.98 in
(1015 mb)
NW 18.4 mph
(NW 30 kph)
- 10SM
04:53
Partly Cloudy
55°F / 13°C 46°F / 8°C 72% 29.95 in
(1014 mb)
NW 12.7 mph
(NW 20 kph)
- 10SM
03:53
Partly Cloudy
57°F / 14°C 46°F / 8°C 67% 29.95 in
(1014 mb)
NW 17.3 mph
(NW 28 kph)
- 10SM
02:53
Clear
57°F / 14°C 48°F / 9°C 72% 29.92 in
(1013 mb)
WNW 10.4 mph
(WNW 17 kph)
- 10SM
01:53
Partly Cloudy
59°F / 15°C 48°F / 9°C 68% 29.92 in
(1013 mb)
W 13.8 mph
(W 22 kph)
- 10SM
00:53
Partly Cloudy
59°F / 15°C 46°F / 8°C 63% 29.92 in
(1013 mb)
W 12.7 mph
(W 20 kph)
- 10SM
Time Weather Temperature Dewpoint Humidity Pressure Winds Precip Visibility


Weather for websites

WeatherForYou.com, LLC is not responsible for any damages or problems caused by this service. Current weather conditions are obtained from the closest station including government and personal stations which may have varying degrees of accuracy. Weather forecasts are derived from the NOAA NDFD. Like all things, this site belongs to Jesus Christ... He just trusts us to maintain it. If you have any questions or comments email webmaster@weatherforyou.com

Copyright © 2015, WeatherForYou.com LLC. All rights reserved.